Weather in Sharurah

Saudi Arabia     17°29′58″N   47°06′01″E
temp.,
°C
wind,
m/s
gust,
m/s
humid.,
%
clouds,
%
prec.,
mm/h
press.,
hPa
HPBL,
m
23 april, fri
fri2300:00+26ne44140 0.0 101027
03:00+24e33230 0.0 100914
06:00+23s44230 0.0 101133
09:00+31sw55130 0.0 1012641
12:00+35sw21110 0.0 10093813
15:00+37nnw2295 0.0 10054671
18:00+33n441121 0.0 100621
21:00+30ne441339 0.0 100827
24 april, sat
sat2400:00+27e510175 0.0 1008106
03:00+25sse68220 0.0 100779
06:00+23s46425 0.0 101085
09:00+32s4519100 0.0 1010698
12:00+36sse3313100 0.0 10074230
15:00+37e221185 0.0 10044460
18:00+35ene4412100 0.0 100438
21:00+31ene441597 0.0 100833
25 april, sun
sun2500:00+27ese332144 0.0 100816
03:00+25s56295 0.0 100862
06:00+24ssw454038 0.0 101061
09:00+33s552440 0.0 1010819
12:00+37sse33145 0.0 10074093
15:00+38ene221298 0.0 10044411
18:00+33nnw561842 0.1 100561
21:00+30nne572381 0.1 100767
26 april, mon
mon2600:00+30e5823100 0.1 1007113
03:00+26sw123140 0.1 100741
06:00+25ssw594542 0.0 1009165
09:00+32ssw67235 0.0 1010997
12:00+36ssw441813 0.0 10073447
15:00+37sse231520 0.0 10033769
18:00+32nne792619 0.0 1005355
21:00+28ne343393 0.1 1009108
27 april, tue
tue2700:00+27se593899 0.3 1009248
03:00+25sse584294 0.3 1008303
06:00+24nw225037 0.1 101034
09:00+28ssw11395 0.1 1011666
12:00+34ene22257 0.0 10072088
15:00+36nne222024 0.0 10043260
18:00+33nne452212 0.0 100470
21:00+30e4430100 0.0 100743